Weather History for KHLC - February, 2013

Change the Weather History Date:

Sunday, February 3, 2013

  Actual Average Record
Temperature  
Mean Temperature 38 °F 30 °F  
Max Temperature 54 °F 43 °F 75 °F (1909)
Min Temperature 21 °F 18 °F -13 °F (1989)
Degree Days  
Heating Degree Days 27    
Moisture  
Dew Point 24 °F    
Average Humidity 61    
Maximum Humidity 85    
Minimum Humidity 32    
Precipitation  
Precipitation 0.00 in 0.01 in - ()
Month to date precipitation 0.00 0.05  
Year to date precipitation 0.09 0.50  
Sea Level Pressure  
Sea Level Pressure 30.09 in    
Wind  
Wind Speed 6 mph (SW)    
Max Wind Speed 15 mph    
Max Gust Speed 23 mph    
Visibility 10 miles    
Events      
T = Trace of Precipitation, MM = Missing Value Source: NWS Daily Summary

Daily Weather History Graph

Daily Weather History Graph

Search for Another Location

Airport or City:

Trip Planner

Search our weather history database for the weather conditions in past years. The results will help you decide how hot, cold, wet, or windy it might be!

Date:

Astronomy

Feb. 03, 2013 Rise Set
Actual Time 7:44 AM CST 6:02 PM CST
Civil Twilight 7:16 AM CST 6:30 PM CST
Nautical Twilight 6:44 AM CST 7:02 PM CST
Astronomical Twilight 6:12 AM CST 7:34 PM CST
Moon 1:13 AM CST (2/3) 11:41 AM CST (2/3)
Length of Visible Light 11h 14m
Length of Day
10h 18m
Waning Gibbous, 48% of the Moon is Illuminated
Feb 3
Waning Gibbous
Feb 10
New
Feb 17
First Quarter
Feb 25
Full
Mar 4
Last Quarter

Hourly Weather History & Observations

Time (CST) Temp. Windchill Dew Point Humidity Pressure Visibility Wind Dir Wind Speed Gust Speed Precip Events Conditions
1:53 AM 28.0 °F 20.8 °F 21.9 °F 78% 30.31 in 10.0 mi West 6.9 mph - N/A   Clear
2:53 AM 27.0 °F 18.7 °F 21.0 °F 78% 30.31 in 10.0 mi West 8.1 mph - N/A   Clear
3:53 AM 27.0 °F 21.6 °F 21.0 °F 78% 30.29 in 10.0 mi West 4.6 mph - N/A   Clear
4:53 AM 26.1 °F 21.9 °F 21.0 °F 81% 30.27 in 10.0 mi West 3.5 mph - N/A   Clear
5:53 AM 25.0 °F 20.7 °F 19.9 °F 81% 30.28 in 10.0 mi WSW 3.5 mph - N/A   Clear
6:53 AM 24.1 °F 19.7 °F 19.9 °F 84% 30.27 in 10.0 mi WNW 3.5 mph - N/A   Clear
7:53 AM 23.0 °F 18.4 °F 19.0 °F 85% 30.28 in 10.0 mi West 3.5 mph - N/A   Clear
8:53 AM 28.0 °F 24.2 °F 21.9 °F 78% 30.26 in 10.0 mi WSW 3.5 mph - N/A   Clear
9:53 AM 34.0 °F - 25.0 °F 70% 30.23 in 10.0 mi Calm Calm - N/A   Clear
10:53 AM 44.1 °F 37.7 °F 25.0 °F 47% 30.19 in 10.0 mi South 12.7 mph - N/A   Clear
11:53 AM 48.0 °F - 24.1 °F 39% 30.15 in 10.0 mi South 13.8 mph - N/A   Clear
12:53 PM 50.0 °F - 24.1 °F 36% 30.09 in 10.0 mi South 13.8 mph - N/A   Clear
1:53 PM 53.1 °F - 24.1 °F 32% 30.04 in 10.0 mi South 15.0 mph 23.0 mph N/A   Clear
2:53 PM 52.0 °F - 25.0 °F 35% 29.99 in 10.0 mi SSW 12.7 mph 20.7 mph N/A   Clear
3:53 PM 53.1 °F - 25.0 °F 34% 29.96 in 10.0 mi South 11.5 mph - N/A   Clear
4:53 PM 53.1 °F - 25.0 °F 34% 29.93 in 10.0 mi South 4.6 mph - N/A   Clear
5:53 PM 48.9 °F - 26.1 °F 41% 29.90 in 10.0 mi South 3.5 mph - N/A   Clear
6:53 PM 45.0 °F 42.6 °F 26.1 °F 48% 29.90 in 10.0 mi SSE 4.6 mph - N/A   Clear
7:53 PM 39.0 °F 36.8 °F 27.0 °F 62% 29.90 in 10.0 mi West 3.5 mph - N/A   Clear
8:53 PM 39.0 °F - 27.0 °F 62% 29.88 in 10.0 mi Calm Calm - N/A   Clear
9:53 PM 36.0 °F 32.1 °F 27.0 °F 70% 29.87 in 10.0 mi West 4.6 mph - N/A   Clear
10:53 PM 37.0 °F 31.0 °F 27.0 °F 67% 29.85 in 10.0 mi WNW 8.1 mph - N/A   Clear
11:53 PM 33.1 °F 28.7 °F 25.0 °F 72% 29.85 in 10.0 mi West 4.6 mph - N/A   Clear